This is the latest recevied weather packets stored in our database for station/object K4KJQ-13. If no packets are shown the sender has not sent any weather packets the latest 10 day(s).
| Time | Temp. | Humidity | Pressure | Rain* | Wind** | Luminosity | Snow |
|---|---|---|---|---|---|---|---|
| 1777894573 | 12.22° C | 100% | 0 hPa | 0.25 mm | - | - | - |
| 1777894273 | 12.22° C | 100% | 0 hPa | 0.51 mm | - | - | - |
| 1777893973 | 12.22° C | 100% | 0 hPa | 1.02 mm | - | - | - |
| 1777893673 | 11.67° C | 100% | 0 hPa | 1.52 mm | - | - | - |
| 1777893373 | 11.67° C | 100% | 0 hPa | 1.78 mm | - | - | - |
| 1777893073 | 11.67° C | 100% | 0 hPa | 2.03 mm | - | - | - |
| 1777892773 | 11.11° C | 100% | 0 hPa | 2.03 mm | - | - | - |
| 1777892473 | 11.11° C | 100% | 0 hPa | 2.03 mm | - | - | - |
| 1777892173 | 11.11° C | 100% | 0 hPa | 2.29 mm | - | - | - |
| 1777891873 | 11.11° C | 100% | 0 hPa | 3.05 mm | - | - | - |
| 1777891573 | 10.56° C | 100% | 0 hPa | 3.56 mm | - | - | - |
| 1777891273 | 10.56° C | 100% | 0 hPa | 3.56 mm | - | - | - |
| 1777890973 | 10.56° C | 100% | 0 hPa | 3.81 mm | - | - | - |
| 1777890673 | 10.56° C | 100% | 0 hPa | 5.08 mm | - | - | - |
| 1777890373 | 10.56° C | 100% | 0 hPa | 5.08 mm | - | - | - |
| 1777890073 | 11.11° C | 100% | 0 hPa | 4.57 mm | - | - | - |
| 1777889773 | 10.56° C | 100% | 0 hPa | 4.32 mm | - | - | - |
| 1777889473 | 10.56° C | 100% | 0 hPa | 4.06 mm | - | - | - |
| 1777889173 | 10.56° C | 100% | 0 hPa | 4.06 mm | - | - | - |
| 1777888873 | 10.56° C | 100% | 0 hPa | 4.06 mm | - | - | - |
| 1777888573 | 10.56° C | 100% | 0 hPa | 3.81 mm | - | - | - |
| 1777888273 | 10° C | 100% | 0 hPa | 3.05 mm | - | - | - |
| 1777887973 | 10.56° C | 100% | 0 hPa | 2.54 mm | - | - | - |
| 1777887673 | 10.56° C | 100% | 0 hPa | 2.54 mm | - | - | - |
| 1777887373 | 11.11° C | 100% | 0 hPa | 2.03 mm | - | - | - |
* Rain latest hour (hover to see other rain measurements)
** Current wind speed in m/s (hover to see current wind gust speed)